Weather in Rechenskiy

Russia / Volgograd Oblast     50°10′35″N   42°01′59″E
temp.,
°C
wind,
m/s
gust,
m/s
humid.,
%
clouds,
%
prec.,
mm/h
press.,
hPa
HPBL,
m
1 august, sun
sun100:00+22se12744 0.0 101111
03:00+21n00770 0.0 101211
06:00+22nne11740 0.0 101243
09:00+28ene22480 0.0 1012666
12:00+33ese23330 0.0 10122354
15:00+34sw232889 0.0 10112698
18:00+33nne113050 0.0 10101367
21:00+25wnw115784 0.6 101211
2 august, mon
mon200:00+24ene116120 0.0 101211
03:00+22ne22695 0.0 101111
06:00+23nnw006195 0.0 101217
09:00+29wsw124111 0.0 1012325
12:00+36sw35255 0.0 10113166
15:00+36wsw442049 0.0 10093450
18:00+35w342334 0.0 10091611
21:00+28s22364 0.0 100912
3 august, tue
tue300:00+25se1240100 0.0 101013
03:00+23s11425 0.0 100911
06:00+25ssw224282 0.0 100927
09:00+29ssw3532100 0.0 1009345
12:00+34sw6823100 0.0 10081114
15:00+37sw5821100 0.0 10063961
18:00+27w5858100 1.2 1008261
21:00+22n477710 2.0 1011190
4 august, wed
wed400:00+20nw4892100 1.4 1011199
03:00+18nnw34935 1.8 101280
06:00+18nnw49850 0.0 1014315
09:00+23nnw57580 0.0 1014837
12:00+28n66360 0.0 10151891
15:00+29n55310 0.0 10152480
18:00+28n453391 0.0 10152130
21:00+22ne2348100 0.0 101652
5 august, thu
thu500:00+20wnw115281 0.0 101611
03:00+18nnw11570 0.0 101711
06:00+19sse11560 0.0 101811
09:00+26w11370 0.0 1018722
12:00+30wnw34257 0.0 10172777
15:00+30wnw4322100 0.0 10162596
18:00+29nw32232 0.0 10152234
21:00+21nnw22400 0.0 101613